Location: Marshall
(39.8477°N, 87.1868°W)
Time: 02:59:01
(UTC+00:00)

Envisat - Pass Details

Date: 13 May 2026
Orbit: 761 x 763 km, 98.4° (Epoch: 9 June)

Event Time Altitude Azimuth Distance (km) Brightness Sun altitude
Rises 06:53:36 0° 38° (NE) 3,229 7.3 -29.6°
Reaches altitude 10° 06:58:23 10° 79° (E) 2,295 5.8 -29.3°
Maximum altitude 06:59:12 10° 89° (E) 2,269 5.6 -29.2°
Drops below altitude 10° 07:00:01 10° 98° (E) 2,292 5.6 -29.2°
Enters shadow 07:00:54 - 108° (ESE) 2,372 5.6 -29.1°
